EHI
0 0 0 0 0 0 0 0 0 0 0 0 0 0 0 0 0 0 0 0 0 0 0 0 0 0 0 0 0 0 0 0 0 0 0 0 0 0 0 0 0 0 0
0 0 0 0 0 0 0 0 0 0 0 0 0 0 0 0 0 0 0 0 0 0 0 0 0 0 0 0 0 0 0 0 0 0 0 0 0 0 0 0 0 0 0
0 0 0 0 0 0 0 0 0 0 0 0 0 0 0 0 0 0 0 0 0 0 0 0 0 0 0 0 0 0 0 0 0 0 0 0 0 0 0 0 0 0 0
0 0 0 0 0 0 0 0 0 0 0 0 0 0 0 0 0 0 0 0 0 0 0 0 0 0 0 0 0 0 0 0 0 0 0 0 0 0 0 0 0 0 0
0 0 0 0 0 0 0 0 0 0 0 0 0 0 0 0 0 0 0 0 0 0 0 0 0 0 0 0 0 0 0 0 0 0 0 0 0 0 0 0 0 0 0
0 0 0 0 0 0 0 0 0 0 0 0 0 0 0 0 0 0 0 0 0 0 0 0 0 0 0 0 0 0 0 0 0 0 0 0 0 0 0 0 0 0 0
0 0 0 0 0 0 0 0 0 0 0 0 0 0 0 0 0 0 0 0 0 0 0 0 0 0 0 0 0 0 0 0 0 0 0 0 0 0 0 0 0 0 0
0 0 0 0 0 0 0 0 0 0 0 0 0 0 0 0 0 0 0 0 0 0 0 0 0 0 0 0 0 0 0 0 0 0 0 0 0 0 0 0 0 0 0
0 0 0 0 0 0 0 0 0 0 0 0 0 0 0 0 0 0 0 0 0 0 0 0 0 0 0 0 0 0 0 0 0 0 0 0 0 0 0 0 0 0 0
0 0 0 0 0 0 0 0 0 0 0 0 0 0 0 0 0 0 0 0 0 0 0 0 0 0 0 0 0 0 0 0 0 0 0 0 0 0 0 0 0 0 0
0 0 0 0 0 0 0 0 0 0 0 0 0 0 0 0 0 0 0 0 0 0 0 0 0 0 0 0 0 0 0 0 0 0 0 0 0 0 0 0 0 0 0
0 0 0 0 0 0 0 0 0 0 0 0 0 0 0 0 0 0 0 0 0 0 0 0 0 0 0 0 0 0 0 0 0 0 0 0 0 0 0 0 0 0 0
0 0 0 0 0 0 0 0 0 0 0 0 0 0 0 0 0 0 0 0 0 0 0 0 0 0 0 0 0 0 0 0 0 0 0 0 0 0 0 0 0 0 0
0 0 0 0 0 0 0 0 0 0 0 0 0 0 0 0 0 0 0 0 0 0 0 0 0 0 0 0 0 0 0 0 0 0 0 0 0 0 0 0 0 0 0
0 0 0 0 0 0 0 0 0 0 0 0 0 0 0 0 0 0 0 0 0 0 0 0 0 0 0 0 0 0 0 0 0 0 0 0 0 0 0 0 0 0 0
0 0 0 0 0 0 0 0 0 0 0 0 0 0 0 0 0 0 0 0 0 0 0 0 0 0 0 0 0 0 0 0 0 0 0 0 0 0 0 0 0 0 0
0 0 0 0 0 0 0 0 0 0 0 0 0 0 0 0 0 0 0 0 0 0 0 0 0 0 0 0 0 0 0 0 0 0 0 0 0 0 0 0 0 0 0
0 0 0 0 0 0 0 0 0 0 0 0 0 0 0 0 0 0 0 0 0 0 0 0 0 0 0 0 0 0 0 0 0 0 0 0 0 0 0 0 0 0 0
0 0 0 0 0 0 0 0 0 0 0 0 0 0 0 0 0 0 0 0 0 0 0 0 0 0 0 0 0 0 0 0 0 0 0 0 0 0 0 0 0 0 0
0 0 0 0 0 0 0 0 0 0 0 0 0 0 0 0 0 0 0 0 0 0 0 0 0 0 0 0 0 0 0 0 0 0 0 0 0 0 0 0 0 0 0
0 0 0 0 0 0 0 0 0 0 0 0 0 0 0 0 0 0 0 0 0 0 0 0 0 0 0 0 0 0 0 0 0 0 0 0 0 0 0 0 0 0 0
0 0 0 0 0 0 0 0 0 0 0 0 0 0 0 0 0 0 0 0 0 0 0 0 0 0 0 0 0 0 0 0 0 0 0 0 0 0 0 0 0 0 0
0 0 0 0 0 0 0 0 0 0 0 0 0 0 0 0 0 0 0 0 0 0 0 0 0 0 0 0 0 0 0 0 0 0 0 0 0 0 0 0 0 0 0
0 0 0 0 0 0 0 0 0 0 0 0 0 0 0 0 0 0 0 0 0 0 0 0 0 0 0 0 0 0 0 0 0 0 0 0 0 0 0 0 0 0 0
0 0 0 0 0 0 0 0 0 0 0 0 0 0 0 0 0 0 0 0 0 0 0 0 0 0 0 0 0 0 0 0 0 0 0 0 0 0 0 0 0 0 0
0 0 0 0 0 0 0 0 0 0 0 0 0 0 0 0 0 0 0 0 0 0 0 0 0 0 0 0 0 0 0 0 0 0 0 0 0 0 0 0 0 0 0
Wind_Speed
1 1 1 1 1 1 1 1 1 2 2 2 2 1 1 1 1 2 2 4 4 4 4 4 5 5 6 5 5 5 5 5 5 5 5 5 5 5 5 5 5 5 5
1 1 1 1 1 1 1 1 1 2 2 2 2 2 2 2 1 2 1 2 3 3 4 5 6 6 6 6 6 6 6 6 6 6 5 5 5 5 5 5 5 6 6
2 1 1 1 1 1 1 1 1 1 1 2 2 2 2 2 2 2 2 1 2 3 4 5 6 7 7 6 6 6 7 7 7 6 6 6 6 6 6 6 6 7 7
2 1 1 1 1 1 1 1 1 1 1 1 2 2 2 2 2 2 1 1 1 2 3 5 6 7 8 7 7 7 7 7 7 7 7 7 6 6 6 7 7 7 7
1 1 1 1 1 1 1 1 1 1 1 2 2 2 2 1 2 2 1 2 1 1 1 3 5 7 8 7 7 7 7 7 7 7 7 7 7 7 7 7 7 7 7
1 1 1 1 1 0 1 1 1 1 1 2 1 2 2 2 2 2 2 2 1 1 2 2 2 4 6 6 7 8 7 7 7 7 8 8 8 7 7 7 7 7 7
1 1 1 1 1 1 1 2 1 1 1 0 0 2 2 2 2 2 1 1 1 2 2 2 2 2 3 5 6 7 8 8 8 8 9 8 8 8 8 8 7 7 7
1 1 1 1 1 1 1 2 1 1 1 0 1 0 2 3 2 2 1 1 1 1 2 2 2 2 2 2 4 6 7 8 9 9 9 9 8 8 9 8 8 7 7
2 1 1 1 1 1 2 2 2 2 2 1 1 2 2 2 3 2 2 1 1 1 2 2 2 2 2 2 2 4 7 8 8 9 9 9 9 9 9 8 7 7 7
2 2 1 2 2 2 2 2 2 2 2 2 1 1 2 2 2 2 2 1 1 2 2 3 3 3 3 2 3 5 7 8 8 9 9 9 9 9 9 8 7 7 7
2 2 2 2 2 2 2 2 2 2 2 3 2 1 1 1 1 2 3 3 3 2 2 3 3 3 2 2 2 3 6 7 7 8 9 9 10 9 9 8 7 7 7
2 2 2 2 2 2 2 2 3 3 3 2 2 2 2 2 2 2 3 3 4 3 3 3 3 2 2 2 3 5 5 6 7 8 9 9 9 9 8 8 8 7 6
2 2 2 2 2 2 2 2 2 2 3 3 3 2 2 3 2 2 2 2 3 3 2 2 3 2 2 1 2 5 5 6 7 8 8 9 9 8 7 7 7 7 7
2 2 2 3 3 2 2 2 2 2 2 3 3 3 2 2 2 2 2 2 2 3 2 4 2 2 1 2 3 5 3 6 7 8 8 8 8 7 7 7 7 7 7
2 2 2 2 2 2 2 2 2 2 2 3 3 3 3 3 2 2 2 2 2 3 4 3 2 1 2 2 4 2 2 5 7 7 8 8 7 7 6 6 6 6 7
2 2 3 2 2 2 2 2 2 2 3 3 2 3 3 2 2 2 2 2 3 3 4 2 2 3 3 3 5 2 2 6 7 8 8 7 7 6 5 6 5 6 6
2 3 3 3 2 2 2 2 2 2 3 3 3 3 3 3 3 2 2 2 2 3 4 3 3 2 3 3 3 2 2 2 3 7 7 7 7 5 5 5 5 5 6
2 3 3 3 3 2 2 2 3 3 3 4 4 4 4 3 4 3 3 3 3 3 4 4 3 2 3 3 3 3 3 3 2 5 6 6 5 5 5 5 5 5 6
2 2 2 3 3 2 2 3 3 3 4 4 4 5 5 4 4 4 3 4 3 3 3 3 3 2 2 2 2 3 3 2 3 3 5 5 5 5 5 5 5 5 6
2 2 2 3 3 3 3 3 3 3 3 3 3 4 4 5 5 5 4 4 3 3 2 2 3 2 2 2 2 2 3 2 2 3 4 4 5 5 5 6 6 6 6
3 2 2 2 2 2 2 2 3 3 3 3 3 3 4 4 5 4 3 3 3 3 2 2 3 2 2 1 2 2 2 2 3 2 2 3 2 2 3 5 6 6 6
2 2 2 2 2 3 4 4 3 2 2 3 3 3 4 4 4 5 4 3 3 3 3 3 2 3 3 2 2 2 2 2 2 1 1 2 2 2 3 2 5 7 7
2 2 3 3 3 4 5 4 4 3 3 3 3 3 2 2 3 2 2 3 3 4 4 3 3 3 3 3 2 2 2 2 3 2 2 2 1 2 3 3 6 7 6
3 3 3 3 3 4 5 4 4 3 2 2 3 3 3 2 2 1 1 1 2 2 3 3 3 3 3 3 3 3 3 2 2 2 1 1 1 2 4 3 6 6 6
2 2 2 3 3 4 4 4 3 2 2 3 3 3 3 3 3 2 1 1 1 2 3 3 3 3 4 4 3 1 1 1 1 2 0 0 1 2 3 3 4 6 6
2 2 2 2 3 3 4 3 3 2 2 2 2 2 3 2 2 2 2 2 2 2 1 1 2 2 2 3 4 2 2 2 1 2 1 0 1 1 2 2 2 3 3
Wind_Direction
208 220 232 236 257 269 266 296 307 307 307 306 291 289 289 283 278 287 296 307 303 301 301 300 299 299 298 292 292 296 287 289 292 289 295 288 281 285 287 291 297 296 294
203 211 229 238 249 247 245 247 271 286 289 290 289 283 280 280 273 272 282 307 312 307 305 304 303 298 295 293 295 297 298 288 286 286 287 291 288 283 283 287 287 288 288
196 202 213 235 252 248 247 262 286 293 299 297 289 285 284 282 282 277 276 283 298 312 310 308 304 302 300 297 298 297 305 304 294 285 282 285 290 290 285 286 284 284 284
187 187 210 238 248 242 239 245 278 295 296 287 282 284 289 285 283 271 267 269 278 293 307 311 309 302 303 298 300 298 299 302 302 299 292 286 287 289 286 288 289 284 283
183 180 215 244 243 241 247 265 302 264 278 284 272 280 284 278 277 274 265 261 263 268 284 308 311 305 305 300 301 299 300 298 297 298 300 296 287 289 285 285 288 289 284
187 180 210 242 239 253 279 271 267 274 252 268 296 317 300 285 274 263 257 260 265 283 290 297 303 302 309 307 307 306 308 306 305 304 303 297 290 288 285 284 285 287 287
196 192 230 247 228 232 253 256 254 263 287 291 46 332 315 295 273 271 258 249 266 280 291 291 291 297 302 311 308 307 308 306 307 310 309 300 296 289 287 283 283 287 286
207 213 206 221 224 238 280 273 245 223 264 253 159 136 319 319 307 286 263 242 265 284 285 292 285 291 294 291 306 312 307 309 308 307 306 305 295 292 288 285 283 285 286
222 225 229 232 227 209 231 253 233 209 218 249 202 170 182 247 298 295 273 277 280 290 292 293 287 291 284 284 285 301 309 307 304 307 306 308 304 302 296 294 291 290 290
237 233 239 242 237 224 225 241 234 222 200 220 248 237 224 206 212 289 293 286 298 290 285 294 294 286 277 272 288 307 314 311 308 306 308 312 306 298 297 293 290 290 293
251 244 243 241 239 230 226 227 218 211 204 200 207 225 251 265 238 222 270 296 306 284 282 281 278 272 275 271 276 295 319 315 315 314 312 311 307 298 297 299 297 292 292
263 256 255 248 242 236 231 218 210 205 202 203 207 207 216 224 227 220 239 263 283 289 291 276 273 260 267 275 292 317 321 320 318 319 318 313 311 301 301 304 306 296 293
261 256 261 253 249 244 240 216 209 217 206 203 207 215 224 244 236 228 225 254 277 292 289 277 266 254 278 283 287 313 316 316 317 319 320 319 315 303 302 307 309 307 301
240 249 253 251 251 248 247 225 215 220 212 211 220 217 221 248 245 228 220 221 274 287 274 268 278 257 280 292 298 317 303 311 312 317 319 317 317 315 311 310 313 312 309
241 243 248 247 246 248 238 220 215 220 219 221 225 223 226 240 235 241 234 211 212 260 276 255 260 285 314 310 309 309 300 307 313 316 316 313 315 315 315 316 313 311 313
242 240 248 248 242 245 240 225 239 222 218 228 226 227 234 241 232 232 231 236 227 231 257 253 267 290 305 309 311 309 293 314 310 309 310 313 315 311 311 313 314 314 315
235 231 236 240 238 239 238 232 241 232 224 232 239 234 243 246 238 234 235 237 240 236 252 274 271 281 287 290 304 293 283 284 288 303 308 313 313 317 318 316 314 314 315
234 234 232 236 239 237 233 232 242 242 231 229 233 236 244 245 236 234 232 238 245 244 237 260 274 273 273 275 291 293 303 301 285 296 306 311 318 326 325 322 318 319 320
235 239 235 235 244 243 237 231 234 241 235 235 230 231 238 241 236 235 234 234 239 244 234 240 265 267 272 273 296 297 298 297 298 303 313 317 324 324 324 326 325 322 320
222 229 237 240 242 245 244 239 240 243 248 245 238 237 236 237 231 227 230 229 229 232 234 240 257 268 270 268 276 287 305 312 303 315 317 315 318 321 325 329 329 327 323
227 227 234 248 251 248 244 244 241 240 249 258 255 249 249 250 241 238 237 221 213 219 227 238 251 266 267 259 270 277 283 303 302 292 306 307 312 311 310 317 326 323 319
231 228 233 238 250 259 265 253 237 236 244 249 257 262 257 245 249 254 258 253 230 220 222 231 243 246 257 258 271 276 278 299 300 304 318 304 304 296 298 296 308 313 316
223 228 235 235 245 258 262 255 251 244 244 246 246 255 264 260 252 240 262 281 268 259 248 231 228 242 248 245 246 266 261 266 265 279 315 301 309 299 300 305 311 311 314
221 226 237 244 253 261 265 265 261 251 253 255 249 242 243 251 248 225 204 261 278 269 266 251 235 246 252 245 235 247 248 278 288 286 268 275 299 298 308 308 311 308 313
232 232 232 233 246 265 267 266 259 250 251 260 264 247 230 226 254 258 209 239 280 283 290 284 284 288 295 292 286 275 262 255 296 301 292 217 281 309 308 301 307 315 317
230 230 237 233 239 256 268 261 247 234 251 261 258 241 235 236 248 256 217 213 247 273 288 305 298 298 285 277 280 238 217 224 251 275 260 223 251 326 317 301 309 321 321